Time,TemperatureF,DewpointF,PressureIn,WindDirection,WindDirectionDegrees,WindSpeedMPH,WindSpeedGustMPH,Humidity,HourlyPrecipIn,Conditions,Clouds,dailyrainin,SoftwareType,DateUTC
2013-05-02 00:11:00,53.0,-99.9,30.02,NW,320,7.0,11.0,-999,-99.99,,,-99.99,,2013-05-02 00:11:00,
2013-05-02 00:22:00,53.0,-99.9,30.02,NW,320,7.0,11.0,-999,-99.99,,,-99.99,,2013-05-02 00:22:00,
2013-05-02 00:50:00,55.0,-99.9,30.03,WNW,300,7.0,9.0,-999,-99.99,,,-99.99,,2013-05-02 00:50:00,
2013-05-02 01:11:00,55.0,-99.9,30.03,WNW,300,7.0,9.0,-999,-99.99,,,-99.99,,2013-05-02 01:11:00,
2013-05-02 01:50:00,54.0,-99.9,30.03,West,270,9.0,9.0,-999,-99.99,,,-99.99,,2013-05-02 01:50:00,
2013-05-02 02:12:00,54.0,-99.9,30.03,West,270,9.0,9.0,-999,-99.99,,,-99.99,,2013-05-02 02:12:00,
2013-05-02 02:22:00,54.0,-99.9,30.03,West,270,9.0,9.0,-999,-99.99,,,-99.99,,2013-05-02 02:22:00,
2013-05-02 02:32:00,54.0,-99.9,30.03,West,270,9.0,9.0,-999,-99.99,,,-99.99,,2013-05-02 02:32:00,
2013-05-02 02:42:00,54.0,-99.9,30.03,West,270,9.0,9.0,-999,-99.99,,,-99.99,,2013-05-02 02:42:00,
2013-05-02 02:50:00,52.0,-99.9,30.04,SSW,200,2.0,7.0,-999,-99.99,,,-99.99,,2013-05-02 02:50:00,
2013-05-02 03:12:00,52.0,-99.9,30.04,SSW,200,2.0,7.0,-999,-99.99,,,-99.99,,2013-05-02 03:12:00,
2013-05-02 03:22:00,52.0,-99.9,30.04,SSW,200,2.0,7.0,-999,-99.99,,,-99.99,,2013-05-02 03:22:00,
2013-05-02 03:33:00,52.0,-99.9,30.04,SSW,200,2.0,7.0,-999,-99.99,,,-99.99,,2013-05-02 03:33:00,
2013-05-02 03:43:00,52.0,-99.9,30.04,SSW,200,2.0,7.0,-999,-99.99,,,-99.99,,2013-05-02 03:43:00,
2013-05-02 03:50:00,51.0,-99.9,30.06,SSE,150,4.0,7.0,-999,-99.99,,,-99.99,,2013-05-02 03:50:00,
2013-05-02 04:12:00,51.0,-99.9,30.06,SSE,150,4.0,7.0,-999,-99.99,,,-99.99,,2013-05-02 04:12:00,
2013-05-02 04:23:00,51.0,-99.9,30.06,SSE,150,4.0,7.0,-999,-99.99,,,-99.99,,2013-05-02 04:23:00,
2013-05-02 04:33:00,51.0,-99.9,30.06,SSE,150,4.0,7.0,-999,-99.99,,,-99.99,,2013-05-02 04:33:00,
2013-05-02 04:43:00,51.0,-99.9,30.06,SSE,150,4.0,7.0,-999,-99.99,,,-99.99,,2013-05-02 04:43:00,
2013-05-02 04:50:00,50.0,-99.9,30.08,South,170,4.0,7.0,-999,-99.99,,,-99.99,,2013-05-02 04:50:00,
2013-05-02 05:12:00,50.0,-99.9,30.08,South,170,4.0,7.0,-999,-99.99,,,-99.99,,2013-05-02 05:12:00,
2013-05-02 05:22:00,50.0,-99.9,30.08,South,170,4.0,7.0,-999,-99.99,,,-99.99,,2013-05-02 05:22:00,
2013-05-02 05:32:00,50.0,-99.9,30.08,South,170,4.0,7.0,-999,-99.99,,,-99.99,,2013-05-02 05:32:00,
2013-05-02 05:42:00,50.0,-99.9,30.08,South,170,4.0,7.0,-999,-99.99,,,-99.99,,2013-05-02 05:42:00,
2013-05-02 05:50:00,50.0,-99.9,30.09,SSE,150,2.0,4.0,-999,-99.99,,,-99.99,,2013-05-02 05:50:00,
2013-05-02 06:12:00,50.0,-99.9,30.09,SSE,150,2.0,4.0,-999,-99.99,,,-99.99,,2013-05-02 06:12:00,
2013-05-02 06:22:00,50.0,-99.9,30.09,SSE,150,2.0,4.0,-999,-99.99,,,-99.99,,2013-05-02 06:22:00,
2013-05-02 06:32:00,50.0,-99.9,30.09,SSE,150,2.0,4.0,-999,-99.99,,,-99.99,,2013-05-02 06:32:00,
2013-05-02 06:42:00,50.0,-99.9,30.09,SSE,150,2.0,4.0,-999,-99.99,,,-99.99,,2013-05-02 06:42:00,
2013-05-02 06:50:00,49.0,-99.9,30.09,North,0,0.0,4.0,-999,-99.99,,,-99.99,,2013-05-02 06:50:00,
2013-05-02 07:11:00,49.0,-99.9,30.09,North,0,0.0,4.0,-999,-99.99,,,-99.99,,2013-05-02 07:11:00,
2013-05-02 07:22:00,49.0,-99.9,30.09,North,0,0.0,4.0,-999,-99.99,,,-99.99,,2013-05-02 07:22:00,
2013-05-02 07:32:00,49.0,-99.9,30.09,North,0,0.0,4.0,-999,-99.99,,,-99.99,,2013-05-02 07:32:00,
2013-05-02 07:42:00,49.0,-99.9,30.09,North,0,0.0,4.0,-999,-99.99,,,-99.99,,2013-05-02 07:42:00,
2013-05-02 07:50:00,50.0,-99.9,30.09,SSE,150,7.0,9.0,-999,-99.99,,,-99.99,,2013-05-02 07:50:00,
2013-05-02 08:11:00,50.0,-99.9,30.09,SSE,150,7.0,9.0,-999,-99.99,,,-99.99,,2013-05-02 08:11:00,
2013-05-02 08:22:00,50.0,-99.9,30.09,SSE,150,7.0,9.0,-999,-99.99,,,-99.99,,2013-05-02 08:22:00,
2013-05-02 08:32:00,50.0,-99.9,30.09,SSE,150,7.0,9.0,-999,-99.99,,,-99.99,,2013-05-02 08:32:00,
2013-05-02 08:42:00,50.0,-99.9,30.09,SSE,150,7.0,9.0,-999,-99.99,,,-99.99,,2013-05-02 08:42:00,
2013-05-02 08:50:00,50.0,-99.9,30.11,SE,140,4.0,7.0,-999,-99.99,,,-99.99,,2013-05-02 08:50:00,
2013-05-02 09:12:00,50.0,-99.9,30.11,SE,140,4.0,7.0,-999,-99.99,,,-99.99,,2013-05-02 09:12:00,
2013-05-02 09:22:00,50.0,-99.9,30.11,SE,140,4.0,7.0,-999,-99.99,,,-99.99,,2013-05-02 09:22:00,
2013-05-02 09:33:00,50.0,-99.9,30.11,SE,140,4.0,7.0,-999,-99.99,,,-99.99,,2013-05-02 09:33:00,
2013-05-02 09:43:00,50.0,-99.9,30.11,SE,140,4.0,7.0,-999,-99.99,,,-99.99,,2013-05-02 09:43:00,
2013-05-02 09:50:00,50.0,-99.9,30.10,SSE,160,4.0,7.0,-999,-99.99,,,-99.99,,2013-05-02 09:50:00,
2013-05-02 10:12:00,50.0,-99.9,30.10,SSE,160,4.0,7.0,-999,-99.99,,,-99.99,,2013-05-02 10:12:00,
2013-05-02 10:23:00,50.0,-99.9,30.10,SSE,160,4.0,7.0,-999,-99.99,,,-99.99,,2013-05-02 10:23:00,
2013-05-02 10:33:00,50.0,-99.9,30.10,SSE,160,4.0,7.0,-999,-99.99,,,-99.99,,2013-05-02 10:33:00,
2013-05-02 10:42:00,50.0,-99.9,30.10,SSE,160,4.0,7.0,-999,-99.99,,,-99.99,,2013-05-02 10:42:00,
2013-05-02 10:50:00,50.0,-99.9,30.10,SSW,210,2.0,4.0,-999,-99.99,,,-99.99,,2013-05-02 10:50:00,
2013-05-02 11:12:00,50.0,-99.9,30.10,SSW,210,2.0,4.0,-999,-99.99,,,-99.99,,2013-05-02 11:12:00,
2013-05-02 11:22:00,50.0,-99.9,30.10,SSW,210,2.0,4.0,-999,-99.99,,,-99.99,,2013-05-02 11:22:00,
2013-05-02 11:32:00,50.0,-99.9,30.10,SSW,210,2.0,4.0,-999,-99.99,,,-99.99,,2013-05-02 11:32:00,
2013-05-02 11:42:00,50.0,-99.9,30.10,SSW,210,2.0,4.0,-999,-99.99,,,-99.99,,2013-05-02 11:42:00,
2013-05-02 11:50:00,49.0,-99.9,30.11,North,10,7.0,9.0,-999,-99.99,,,-99.99,,2013-05-02 11:50:00,
2013-05-02 12:12:00,49.0,-99.9,30.11,North,10,7.0,9.0,-999,-99.99,,,-99.99,,2013-05-02 12:12:00,
2013-05-02 12:22:00,49.0,-99.9,30.11,North,10,7.0,9.0,-999,-99.99,,,-99.99,,2013-05-02 12:22:00,
2013-05-02 12:32:00,49.0,-99.9,30.11,North,10,7.0,9.0,-999,-99.99,,,-99.99,,2013-05-02 12:32:00,
2013-05-02 12:42:00,49.0,-99.9,30.11,North,10,7.0,9.0,-999,-99.99,,,-99.99,,2013-05-02 12:42:00,
2013-05-02 12:50:00,49.0,-99.9,30.11,NE,40,7.0,9.0,-999,-99.99,,,-99.99,,2013-05-02 12:50:00,
2013-05-02 13:11:00,49.0,-99.9,30.11,NE,40,7.0,9.0,-999,-99.99,,,-99.99,,2013-05-02 13:11:00,
2013-05-02 13:22:00,49.0,-99.9,30.11,NE,40,7.0,9.0,-999,-99.99,,,-99.99,,2013-05-02 13:22:00,
2013-05-02 13:32:00,49.0,-99.9,30.11,NE,40,7.0,9.0,-999,-99.99,,,-99.99,,2013-05-02 13:32:00,
2013-05-02 13:42:00,49.0,-99.9,30.11,NE,40,7.0,9.0,-999,-99.99,,,-99.99,,2013-05-02 13:42:00,
2013-05-02 13:50:00,50.0,-99.9,30.11,NE,40,7.0,9.0,-999,-99.99,,,-99.99,,2013-05-02 13:50:00,
2013-05-02 14:11:00,50.0,-99.9,30.11,NE,40,7.0,9.0,-999,-99.99,,,-99.99,,2013-05-02 14:11:00,
2013-05-02 14:22:00,50.0,-99.9,30.11,NE,40,7.0,9.0,-999,-99.99,,,-99.99,,2013-05-02 14:22:00,
2013-05-02 14:32:00,50.0,-99.9,30.11,NE,40,7.0,9.0,-999,-99.99,,,-99.99,,2013-05-02 14:32:00,
2013-05-02 14:43:00,50.0,-99.9,30.11,NE,40,7.0,9.0,-999,-99.99,,,-99.99,,2013-05-02 14:43:00,
2013-05-02 15:12:00,51.0,-99.9,30.13,NNE,20,4.0,7.0,-999,-99.99,,,-99.99,,2013-05-02 15:12:00,
2013-05-02 15:22:00,51.0,-99.9,30.13,NNE,20,4.0,7.0,-999,-99.99,,,-99.99,,2013-05-02 15:22:00,
2013-05-02 15:33:00,51.0,-99.9,30.13,NNE,20,4.0,7.0,-999,-99.99,,,-99.99,,2013-05-02 15:33:00,
2013-05-02 15:43:00,51.0,-99.9,30.13,NNE,20,4.0,7.0,-999,-99.99,,,-99.99,,2013-05-02 15:43:00,
2013-05-02 15:50:00,52.0,-99.9,30.15,NE,40,4.0,7.0,-999,-99.99,,,-99.99,,2013-05-02 15:50:00,
2013-05-02 16:43:00,52.0,-99.9,30.15,NE,40,4.0,7.0,-999,-99.99,,,-99.99,,2013-05-02 16:43:00,
2013-05-02 16:50:00,52.0,-99.9,30.14,North,0,0.0,4.0,-999,-99.99,,,-99.99,,2013-05-02 16:50:00,
2013-05-02 17:12:00,52.0,-99.9,30.14,North,0,0.0,4.0,-999,-99.99,,,-99.99,,2013-05-02 17:12:00,
2013-05-02 17:22:00,52.0,-99.9,30.14,North,0,0.0,4.0,-999,-99.99,,,-99.99,,2013-05-02 17:22:00,
2013-05-02 17:32:00,52.0,-99.9,30.14,North,0,0.0,4.0,-999,-99.99,,,-99.99,,2013-05-02 17:32:00,
2013-05-02 17:42:00,52.0,-99.9,30.14,North,0,0.0,4.0,-999,-99.99,,,-99.99,,2013-05-02 17:42:00,
2013-05-02 18:12:00,53.0,-99.9,30.15,WNW,300,4.0,9.0,-999,-99.99,,,-99.99,,2013-05-02 18:12:00,
2013-05-02 18:22:00,53.0,-99.9,30.15,WNW,300,4.0,9.0,-999,-99.99,,,-99.99,,2013-05-02 18:22:00,
2013-05-02 18:32:00,53.0,-99.9,30.15,WNW,300,4.0,9.0,-999,-99.99,,,-99.99,,2013-05-02 18:32:00,
2013-05-02 18:42:00,53.0,-99.9,30.15,WNW,300,4.0,9.0,-999,-99.99,,,-99.99,,2013-05-02 18:42:00,
2013-05-02 18:50:00,53.0,-99.9,30.16,North,10,2.0,4.0,-999,-99.99,,,-99.99,,2013-05-02 18:50:00,
2013-05-02 19:11:00,53.0,-99.9,30.16,North,10,2.0,4.0,-999,-99.99,,,-99.99,,2013-05-02 19:11:00,
2013-05-02 19:42:00,53.0,-99.9,30.16,North,10,2.0,4.0,-999,-99.99,,,-99.99,,2013-05-02 19:42:00,
2013-05-02 20:12:00,56.0,-99.9,30.16,North,0,0.0,2.0,-999,-99.99,,,-99.99,,2013-05-02 20:12:00,
2013-05-02 20:22:00,56.0,-99.9,30.16,North,0,0.0,2.0,-999,-99.99,,,-99.99,,2013-05-02 20:22:00,
2013-05-02 20:32:00,56.0,-99.9,30.16,North,0,0.0,2.0,-999,-99.99,,,-99.99,,2013-05-02 20:32:00,
2013-05-02 21:12:00,56.0,-99.9,30.17,North,0,0.0,2.0,-999,-99.99,,,-99.99,,2013-05-02 21:12:00,
2013-05-02 21:22:00,56.0,-99.9,30.17,North,0,0.0,2.0,-999,-99.99,,,-99.99,,2013-05-02 21:22:00,
2013-05-02 21:33:00,56.0,-99.9,30.17,North,0,0.0,2.0,-999,-99.99,,,-99.99,,2013-05-02 21:33:00,
2013-05-02 22:13:00,57.0,-99.9,30.17,North,0,0.0,2.0,-999,-99.99,,,-99.99,,2013-05-02 22:13:00,
2013-05-02 22:22:00,57.0,-99.9,30.17,North,0,0.0,2.0,-999,-99.99,,,-99.99,,2013-05-02 22:22:00,
2013-05-02 22:33:00,57.0,-99.9,30.17,North,0,0.0,2.0,-999,-99.99,,,-99.99,,2013-05-02 22:33:00,
2013-05-02 22:50:00,57.0,-99.9,30.16,NW,320,2.0,4.0,-999,-99.99,,,-99.99,,2013-05-02 22:50:00,
2013-05-02 23:12:00,57.0,-99.9,30.16,NW,320,2.0,4.0,-999,-99.99,,,-99.99,,2013-05-02 23:12:00,
2013-05-02 23:22:00,57.0,-99.9,30.16,NW,320,2.0,4.0,-999,-99.99,,,-99.99,,2013-05-02 23:22:00,
2013-05-02 23:32:00,57.0,-99.9,30.16,NW,320,2.0,4.0,-999,-99.99,,,-99.99,,2013-05-02 23:32:00,